User: anonymous   Login
Location: Unspecified
(0.0000°N, 0.0000°E)
Time: 20:46:30
(UTC+00:00)
Language:

N. Korean satellite - Orbit

View from above orbital plane
View from above orbital plane
View from above satellite
View from above satellite

Ground track
Ground track

The orbit data is extracted from the following two-line orbital elements,

1 39026U 12072A   15090.38742431  .00011408  00000-0  53173-3 0  9995
2 39026 097.2921 124.6055 0048745 146.3809 214.0535 15.18959816126893
Epoch (UTC): 31 March 2015 09:17:53
Eccentricity: 0.0048745
inclination: 97.2921°
perigee height: 475 km
apogee height: 542 km
right ascension of ascending node: 124.6055°
argument of perigee: 146.3809°
revolutions per day: 15.18959816
mean anomaly at epoch: 214.0535°
orbit number at epoch: 12689

The dashed part of the orbit path shows where the satellite is in the earth's shadow,  

DLR